Powrót do katalogu

STARLINK-32094

AktywnyŁącznośćVLEO
NORAD 59696·PAYLOAD·🇺🇸 United States

Wystrzelony May 8, 2024 z Cape Canaveral Space Force Station

Loading…

Następne Przeloty (najbliższe 24 godziny)

TLE

ŚwieżeSource: CelesTrak SupGP

Epoka: Sep 14, 2026, 20:28 UTC

1 59696C 24086Q   26257.85326389  .00018215  00000+0  65977-3 0  2571
2 59696  43.0030  71.9051 0001681 276.4147 265.0859 15.27567081    15

Śledź STARLINK-32094 w czasie rzeczywistym z AllMySat

Download on the App Store